Regional Weather Roundup
Issued by NWS

Home | Current Version | Previous Version | Text Only | Print | Product List | Glossary On
Versions: 1 2 3 4 5 6 7 8 9 10 11 12 13 14 15 16 17 18 19 20 21 22 23 24 25 26 27 28 29 30 31 32 33 34 35 36 37 38 39 40 41 42 43 44 45 46 47 48 49 50
000
ASUS44 KFWD 222215
RWRTX
NORTH TEXAS HOURLY WEATHER ROUNDUP
NATIONAL WEATHER SERVICE FORT WORTH TX
500 PM CDT FRI MAY 22 2015

NOTE: "FAIR" INDICATES FEW OR NO CLOUDS BELOW 12,000 FEET WITH NO
SIGNIFICANT WEATHER AND/OR OBSTRUCTIONS TO VISIBILITY.

TXZ118-119-222300-
DALLAS/FORT WORTH METROPLEX

CITY           SKY/WX    TMP DP  RH WIND       PRES   REMARKS
DFW AIRPORT    CLOUDY    67  62  84 E7        30.09F
DALLAS LOVE    CLOUDY    69  62  78 E9        30.10F
FTW MEACHAM    CLOUDY    67  61  81 E6        30.09F
DAL-EXECUTIVE  CLOUDY    71  63  75 E10       30.09F
FTW-ALLIANCE   CLOUDY    63  60  90 NE5       30.11F
FTW-NAS-JRB    CLOUDY    66  61  84 NE5       30.10F
FTW-SPINKS     CLOUDY    72  64  78 E5        30.11F
ARLINGTON      CLOUDY    73  63  70 E8        30.10F
ADDISON        CLOUDY    66  61  82 E9        30.13F
MESQUITE       CLOUDY    73  63  68 E8        30.11F
LANCASTER      CLOUDY    72  62  70 E6        30.11F
$$

TXZ091>094-102>105-117-120-121-131>134-222300-
NORTH CENTRAL TEXAS

CITY           SKY/WX    TMP DP  RH WIND       PRES   REMARKS
SHRMAN/DENISON CLOUDY    60  59  98 E8        30.14F
GAINESVILLE    LGT RAIN  58  57  95 CALM      30.16S
BOWIE          CLOUDY    58  58 100 E6        30.12F
BRIDGEPORT     CLOUDY    60  60 100 E5        30.14S FOG
DECATUR        CLOUDY    59  59  98 E5        30.13F
DENTON         LGT RAIN  61  59  93 NE3       30.12S
MCKINNEY       CLOUDY    65  61  87 E8        30.12F
GREENVILLE     CLOUDY    72  61  68 E5        30.13F
ROCKWALL       CLOUDY    71  62  73 E10       30.10F
TERRELL        CLOUDY    74  64  71 E6        30.11F
WAXAHACHIE     CLOUDY    72  66  83 E6        30.11F
CLEBURNE       MOSUNNY   72  70  94 SE8G14    30.10F
GRANBURY         N/A     70  65  84 SE7       30.10F
$$

TXZ083>090-098>101-113>116-127>130-139>142-154-155-222300-
WESTERN NORTH TEXAS

CITY           SKY/WX    TMP DP  RH WIND       PRES   REMARKS
WICHITA FALLS  CLOUDY    59  56  89 E13       30.11F
WF-KICKAPOO    CLOUDY    61  59  91 E8        30.12S
VERNON         CLOUDY    63  57  81 SE10      30.10F
ABILENE        CLOUDY    71  65  81 SE12      30.06F
ABILENE-DYESS  PTSUNNY   73  63  68 SE8       30.04F
BRECKENRIDGE   CLOUDY    70  66  87 SE7       30.07F
GRAHAM         CLOUDY    64  64  99 SE6       30.08F FOG
MINERAL WELLS  CLOUDY    65  63  93 SE8       30.08F FOG
STEPHENVILLE   CLOUDY    67  64  89 SE8       30.12S
COMANCHE       CLOUDY    71  69  92 SE8       30.08F
BROWNWOOD      CLOUDY    72  66  83 SE12      30.07F
COLEMAN        CLOUDY    73  68  84 SE10      30.06F
BRADY          CLOUDY    73  70  88 E9        30.06F
$$

TXZ143>147-156>162-174-175-222300-
CENTRAL TEXAS

CITY           SKY/WX    TMP DP  RH WIND       PRES   REMARKS
WACO           CLOUDY    75  66  73 SE10      30.09F
WACO-TSTC      CLOUDY    75  68  78 S9        30.10
WACO-MCGREGOR  CLOUDY    73  64  73 SE13      30.10F
HILLSBORO      CLOUDY    74  66  77 E5        30.09F
CORSICANA      CLOUDY    76  66  71 E7        30.11S
MEXIA          CLOUDY    76  68  75 SE12G18   30.09S
HEARNE         CLOUDY    76  69  78 SE5       30.10S
CAMERON        CLOUDY    76  70  80 SE5       30.09S
TEMPLE         CLOUDY    73  64  73 SE12      30.08F
KILLEEN        CLOUDY    69  68  95 SE8       30.08F
KILLEEN-SKYLRK CLOUDY    72  64  78 SE8       30.09S
FORT HOOD      CLOUDY    70  68  91 SE8       30.08F
GATESVILLE     PTSUNNY   72  68  88 S8        30.11S
HAMILTON       CLOUDY    72  70  94 S15       30.10F
LAMPASAS       CLOUDY    71  69  94 E5        30.08S
$$

TXZ095>097-106>112-122>126-135>138-148>153-164>167-222300-
EAST TEXAS

CITY           SKY/WX    TMP DP  RH WIND       PRES   REMARKS
PARIS          CLOUDY    64  57  77 E10       30.16F
SULPHUR SPRNGS LGT RAIN  72  61  68 E7        30.15F
MOUNT PLEASANT CLOUDY    72  60  65 E7        30.15F
GILMER         MOSUNNY   76  63  65 E5        30.13F
MINEOLA        PTSUNNY   75  64  69 SE3       30.13F
TYLER          CLOUDY    77  63  61 SE10      30.11F
LONGVIEW       MOSUNNY   77  63  61 VRB5      30.13S
MARSHALL       MOSUNNY   78  65  63 E6        30.16F
ATHENS         CLOUDY    75  64  69 E3        30.09S
PALESTINE      PTSUNNY   79  67  68 SE3       30.11S
JACKSONVILLE   PTSUNNY   76  65  68 E6        30.14S
HENDERSON      PTSUNNY   77  63  62 E3        30.14S
NACOGDOCHES    MOSUNNY   77  66  69 SE7       30.12S
LUFKIN         MOSUNNY   81  66  60 SE9       30.12S
$$

SUPPLEMENTAL OBSERVATIONS (CENTRAL)

CITY           SKY/WX    TMP DP  RH WIND       PRES   REMARKS
LAKE TEXOMA      N/A     57  55  94 E6          N/A
CADDO GRASSLND   N/A     63  57  82 NE3         N/A
PAT MAYSE LAKE   N/A     61  59  94 VRB3        N/A
GREENVILLE       N/A     68  59  73 E8          N/A
CEDAR HILL       N/A     73  64  73 SE1         N/A
ATHENS           N/A     77  64  65 SE7         N/A
MCGREGOR         N/A     73  66  78 SE10        N/A
TEMPLE           N/A     73  66  78 E7          N/A
$$

SUPPLEMENTAL OBSERVATIONS (WEST)

CITY           SKY/WX    TMP DP  RH WIND       PRES   REMARKS
POSSUM KINGDOM   N/A     64  61  88 SE8         N/A
LBJ GRASSLAND    N/A     61  59  94 E5          N/A
GRANBURY         N/A     70  64  83 SE8         N/A
HAMBY            N/A     70  64  83 SE7         N/A
IVIE RESERVOIR   N/A     75  64  69 SE12        N/A
COLORADO BEND    N/A     72  68  88 S8          N/A
$$

SUPPLEMENTAL OBSERVATIONS (EAST)

CITY           SKY/WX    TMP DP  RH WIND       PRES   REMARKS
CLARKSVILLE      N/A     64  63  94 NW2         N/A
TEXARKANA        N/A     75  57  53 E5          N/A
LINDEN           N/A     73  59  60 E3          N/A
CADDO LAKE       N/A     79  61  53 SE3G12      N/A
GILMER           N/A    N/A N/A N/A E5          N/A
HENDERSON        N/A     77  63  61 E8          N/A
LUFKIN           N/A     79  64  61 MISG        N/A
N SABINE NF      N/A     79  66  65 MISG        N/A
S SABINE NF      N/A     77  64  65 CALM        N/A
$$

SUPPLEMENTAL OBSERVATIONS ARE A COLLECTION OF AUTOMATED INSTRUMENTS
THAT ARE MAINTAINED BY A VARIETY OF FEDERAL AND STATE AGENCIES.
CERTAIN ELEMENTS...SUCH AS HUMIDITY VALUES AND SUSTAINED WIND
SPEEDS...MAY BE APPROXIMATED.



USA.gov is the U.S. government's official web portal to all federal, state and local government web resources and services.